Location: Alafon
(8.4500°N, 4.2333°E)
Time: 18:43:24
(UTC+00:00)

A-11 Canister half - Pass Details

Date: 08 August 2021
Orbit: 1515 x 1685 km, 47.2° (Epoch: 19 September)

Event Time Altitude Azimuth Distance (km) Brightness Sun altitude
Rises 14:00:58 0° 258° (WSW) 4,675 12.0 56.9°
Reaches altitude 10° 14:04:58 10° 273° (W) 3,712 11.8 55.9°
Maximum altitude 14:11:41 22° 319° (NW) 2,935 11.4 54.3°
Drops below altitude 10° 14:18:36 10° 6° (N) 3,802 11.3 52.7°
Sets 14:22:50 0° 21° (NNE) 4,818 11.6 51.7°
